Location: Altenst�hlen
(53.5567°N, 8.9425°E)
Time: 14:46:11
(UTC+00:00)

Cosmos 2263 Rocket - Pass Details

Date: 23 October 2019
Orbit: 825 x 847 km, 71.0° (Epoch: 16 November)

Event Time Altitude Azimuth Distance (km) Brightness Sun altitude
Rises 20:12:33 0° 318° (NW) 3,396 6.3 -35.4°
Reaches altitude 10° 20:16:08 10° 341° (NNW) 2,455 5.1 -35.8°
Enters shadow 20:18:43 15° 8° (N) 2,114 4.5 -36.2°
